OPS 4682 DEB, 19113

Orbit data source: Space-Track

OPS 4682 DEB, 19113 is space debris in LEO originally from a launch on Sat, 03 Apr 1965 UTC launched from the Air Force Western Test Range (AFWTR). Debris objects in space refer to the collection of defunct objects orbiting the Earth. Examples of debris include non-operational satellites, rocket bodies, and fragments generated from explosions, collisions, or faulty payload assembly.

Loading next visibility...
Identifier
19113, 1965-027AQ
Orbit
LEO
Country
Flag of USUS
Related business
Manufacturer
Unknown
Mission
Spacecraft
Bus & Motor
Unknown
Mass
Unknown
Launch date (UTC)
1965-04-03 (61 years ago)
Launch vehicle
Unknown
Launch site
Air Force Western Test Range (AFWTR)
Object type
Payload
Rocket body
Debris
Shape & HBR
Unknown shape, 0.1 m
Radar Cross Section
Medium (>0.1 m² and <1 m²)

Expand to show TLE details & history
Last TLE update: 3 days ago

TLE from 3 days ago
0 OPS 4682 DEB
1 19113U 65027AQ  26233.37696346  .00000750  00000-0  22483-2 0  9998
2 19113  90.2586  15.5869 0032742 245.6438 141.9121 13.06320263643470
Epoch: 2026-08-21T09:02Z
TLE epoch observation values (Epoch: 2026-08-21T09:02:49.642Z)
Latitude
27.82358°
Longitude
-89.95834°
Altitude
1,260.509 km
Speed
7.218 km/s
True Right ascension
01h 01m 48s
True Declination
27° 41' 28"
Sunlit
Object was in daylight at epoch
Visualization orbit readout
Latitude
Unknown
Longitude
Unknown
Altitude
Unknown
Speed
Unknown
Apparent Right ascension
Unknown
Apparent Declination
Unknown
Sunlit
N/A
Visualization observer readout
Local Sidereal Time
16:02:58
Azimuth
Unknown
Elevation
Unknown
Doppler factor
Unknown
Orbital elements
Apogee altitude
1,259.466 km
Perigee altitude
1,209.616 km
Semi-major axis
7,612.678 km
Eccentricity
0.00327
Inclination
90.2586°
RAAN
15.5869°
Arg. of periapsis
245.6438°
True anomaly
142.1428°
Mean anomaly
141.9121°
Eccentric anomaly
142.02753°
Mean motion
3.26766 °/min
Orbital period
110.17 mins
BSTAR
0.0022483
Loading maneuver chart data...
Computing Atmospheric mass density...
Loading historical data...
Loading historical data...
Loading historical data...
Loading historical data...
Loading historical data...
Loading historical data...
Loading historical data...

Documentation

Showing up to 5 results
|